Vorticity
7 8 5 4 5 5 21 -19 3 -13 7 6 0 -1 20 18 4 -2 -1 -0 16 1 5 3 3 4 2 3 -0 2 5 6 4 6 8 8 8 8 7 7 7 5 6 6 7 6 5 6 6
6 9 8 7 7 10 9 -8 1 17 2 3 -3 15 10 27 8 4 4 -4 1 7 7 4 2 0 5 -0 4 4 6 4 8 6 10 7 7 7 6 5 6 6 6 6 6 5 5 5 5
7 7 4 6 7 14 -2 14 -1 5 2 -2 -5 -6 5 14 18 15 12 7 5 4 5 5 4 5 4 0 3 5 4 13 9 7 10 7 10 6 7 6 5 5 5 5 5 5 5 6 5
6 8 11 11 18 16 14 -2 17 1 -0 5 1 17 5 8 12 12 8 6 2 3 3 3 7 7 3 0 2 5 9 11 8 11 8 7 7 6 5 7 6 6 5 5 5 6 6 5 5
9 7 10 14 3 -29 7 9 0 2 3 5 20 16 16 9 10 10 9 7 7 5 3 6 4 5 5 0 7 3 9 8 10 8 7 7 7 5 5 7 7 6 5 5 4 5 6 7 5
9 11 12 10 4 -1 0 14 4 2 -1 -0 10 3 7 10 8 8 6 4 4 4 5 5 5 3 2 6 10 8 8 8 13 11 7 6 7 7 7 8 6 6 6 5 5 5 5 5 5
7 11 12 17 31 -7 1 7 7 17 15 10 9 17 15 12 9 6 7 6 5 5 6 5 5 5 5 10 4 10 7 7 6 12 10 10 10 9 8 9 10 9 8 7 7 6 6 5 4
8 9 15 14 3 -2 10 4 16 -3 21 5 8 7 15 14 12 9 7 6 6 5 5 4 3 6 10 4 6 9 6 6 5 6 9 9 9 7 6 6 5 5 5 6 6 6 6 7 8
5 9 15 1 -9 2 14 3 5 1 14 9 6 9 8 8 7 8 9 8 7 6 6 7 7 7 3 4 8 8 4 6 6 5 5 3 3 4 4 3 3 4 4 4 4 5 4 4 5
4 8 14 -4 9 9 3 -4 -10 8 15 6 12 13 6 11 9 6 6 6 6 6 7 7 5 3 4 9 9 8 8 10 9 5 4 5 5 5 5 4 4 4 4 5 6 5 5 6 6
2 11 4 7 5 16 31 1 -0 6 11 9 8 6 13 13 19 11 6 5 5 6 7 6 6 7 14 9 10 10 6 7 4 3 5 6 6 6 4 3 3 3 4 3 3 4 5 5 5
6 4 7 9 7 11 12 16 18 9 2 3 3 3 1 8 6 8 13 14 14 15 14 13 13 11 5 6 6 5 6 6 4 3 3 4 4 4 3 4 4 4 3 3 4 4 5 6 7
7 8 8 5 8 5 7 6 11 7 5 3 3 2 4 4 3 4 7 7 6 6 6 5 5 4 4 6 5 5 6 7 4 4 5 5 6 5 4 3 3 3 2 3 4 4 5 6 6
8 7 7 7 7 6 5 8 7 11 2 0 5 8 8 4 7 6 5 6 8 7 8 7 6 6 6 6 6 7 8 6 4 5 5 6 6 5 5 3 3 4 4 4 5 5 7 6 6
6 6 5 3 3 3 2 7 7 8 6 3 8 8 6 6 7 7 7 7 8 8 8 7 6 8 8 9 9 8 8 6 5 5 6 7 6 5 5 4 4 4 5 4 3 3 5 5 5
6 7 7 6 2 2 7 5 1 3 11 6 6 9 7 6 3 3 5 5 4 5 7 7 8 7 7 7 7 4 6 7 6 7 8 7 5 5 5 4 3 4 3 3 3 7 7 7 6
7 7 3 12 15 9 6 3 4 2 2 11 11 9 3 5 1 2 2 4 6 5 5 5 4 3 3 3 3 4 3 4 -5 -6 -2 1 1 0 -0 -1 -0 4 5 8 7 6 7 7 8
5 8 12 15 3 -2 1 6 6 8 4 4 6 4 4 4 4 6 10 4 1 2 2 5 5 6 4 2 3 6 5 9 9 9 21 28 17 10 11 10 7 5 3 5 7 7 8 9 9
3 4 8 11 7 -5 -4 8 15 10 5 7 4 0 1 4 8 8 10 2 16 13 15 14 9 10 10 11 10 9 5 4 4 5 9 9 5 8 4 5 6 6 9 7 8 10 10 12 9
9 4 7 5 7 1 4 10 7 5 7 11 10 15 21 13 9 6 16 15 28 22 17 10 7 9 10 13 14 10 6 6 6 2 8 5 7 3 3 4 5 8 7 9 13 13 13 10 12
4 7 9 4 1 10 6 12 7 12 15 7 11 14 17 10 3 12 21 5 11 7 18 13 8 9 8 9 9 9 8 7 6 1 4 7 2 8 9 3 10 12 15 14 14 14 12 10 8
1 2 5 7 4 5 5 2 3 10 13 17 15 47 21 1 -12 -3 10 9 10 0 10 -16 22 11 11 10 7 6 8 9 8 5 7 6 7 9 -6 11 15 14 15 12 10 7 8 12 15
6 4 15 8 5 8 6 7 -4 23 7 6 7 13 10 9 4 -6 0 6 2 -3 7 7 15 7 14 9 9 8 8 9 9 4 1 9 22 24 21 18 15 20 20 16 6 10 14 10 13
6 11 7 9 9 13 9 18 2 17 22 12 2 5 13 10 8 8 -3 -1 2 1 6 13 23 15 18 14 9 9 10 10 11 13 11 7 16 19 18 25 10 11 13 2 12 13 12 14 14
10 6 6 7 5 13 2 3 26 14 6 -1 -8 7 -4 -1 -4 -2 1 9 1 6 17 24 12 7 17 7 9 7 9 9 8 7 7 12 14 24 5 7 13 8 2 15 16 14 12 17 6
6 6 6 3 10 3 6 6 17 14 1 8 -7 -6 13 10 1 -2 15 18 13 17 14 -16 -0 12 14 13 11 7 7 7 10 16 17 14 20 -7 7 10 12 3 13 18 15 16 10 10 8
9 7 23 4 6 7 12 9 19 15 32 20 20 22 14 20 19 9 -4 -6 11 30 8 -15 9 13 6 4 16 11 9 17 13 14 18 -0 -0 15 12 14 6 7 19 12 10 7 10 15 12
13 8 6 16 -9 13 3 8 6 22 0 5 -2 -1 -3 1 -9 0 23 16 -5 16 -26 9 9 4 6 11 12 14 12 8 14 7 20 13 11 12 8 3 9 20 14 10 11 10 13 14 11
6 6 18 17 8 16 23 0 38 13 7 15 12 13 19 3 31 -24 5 5 74 8 2 4 5 13 16 8 24 16 11 11 10 11 13 11 8 -0 5 24 20 12 8 7 8 10 14 11 8
15 9 5 17 3 17 1 -27 25 9 0 -1 2 -21 7 24 25 -6 0 59 -17 2 -14 3 13 18 -1 -19 40 10 13 10 13 13 15 8 16 16 16 16 9 9 6 8 12 11 14 13 7
Height
5854 5853 5853 5854 5857 5857 5858 5855 5849 5852 5852 5855 5857 5860 5862 5863 5858 5857 5855 5860 5862 5858 5859 5859 5859 5858 5858 5856 5855 5853 5851 5850 5848 5846 5845 5843 5842 5841 5840 5838 5838 5837 5837 5837 5836 5835 5835 5835 5835
5851 5850 5850 5850 5853 5855 5853 5849 5845 5850 5850 5851 5852 5856 5858 5858 5857 5853 5853 5853 5855 5856 5856 5856 5855 5854 5854 5852 5850 5848 5846 5844 5843 5842 5840 5839 5838 5837 5836 5834 5834 5833 5833 5833 5832 5831 5831 5831 5831
5847 5847 5847 5847 5849 5850 5849 5845 5844 5847 5848 5847 5850 5850 5852 5853 5851 5850 5850 5850 5852 5852 5851 5851 5852 5850 5849 5848 5846 5844 5842 5839 5838 5837 5835 5835 5834 5832 5831 5831 5830 5829 5829 5829 5829 5828 5828 5828 5827
5843 5845 5843 5845 5846 5845 5847 5841 5842 5841 5843 5844 5845 5847 5846 5846 5844 5843 5845 5846 5847 5847 5846 5847 5846 5846 5845 5843 5842 5839 5837 5835 5833 5832 5832 5830 5829 5828 5828 5827 5826 5826 5825 5825 5825 5825 5824 5824 5823
5839 5839 5838 5841 5839 5840 5842 5841 5839 5842 5835 5837 5839 5841 5840 5839 5839 5839 5841 5840 5842 5842 5842 5842 5842 5841 5840 5838 5837 5835 5832 5830 5829 5827 5827 5826 5826 5825 5823 5823 5822 5822 5821 5821 5821 5821 5821 5820 5820
5834 5835 5836 5837 5836 5832 5834 5838 5838 5838 5832 5830 5830 5834 5834 5832 5833 5835 5835 5835 5837 5837 5837 5837 5837 5836 5835 5834 5832 5830 5828 5826 5825 5824 5823 5823 5823 5822 5821 5820 5818 5818 5817 5817 5817 5817 5816 5816 5815
5832 5831 5832 5833 5834 5832 5832 5832 5832 5835 5827 5823 5827 5829 5830 5830 5830 5829 5829 5830 5831 5831 5832 5832 5831 5831 5830 5829 5827 5825 5824 5822 5822 5820 5820 5819 5818 5817 5817 5815 5814 5813 5812 5812 5812 5812 5812 5811 5810
5828 5828 5828 5827 5827 5826 5826 5826 5830 5829 5826 5818 5820 5826 5828 5824 5823 5825 5825 5824 5825 5826 5826 5826 5825 5824 5823 5823 5822 5820 5819 5818 5817 5817 5816 5815 5814 5812 5811 5811 5809 5809 5808 5808 5807 5807 5806 5806 5806
5823 5825 5824 5823 5822 5822 5821 5820 5824 5823 5818 5816 5816 5819 5821 5818 5818 5820 5820 5820 5820 5820 5820 5819 5818 5818 5817 5817 5816 5815 5814 5813 5812 5812 5811 5810 5809 5808 5807 5806 5804 5804 5803 5802 5801 5801 5800 5800 5799
5818 5819 5819 5818 5818 5817 5816 5817 5817 5817 5814 5807 5812 5813 5813 5814 5814 5814 5815 5816 5815 5815 5815 5814 5812 5812 5812 5811 5810 5810 5810 5809 5808 5808 5806 5806 5804 5802 5802 5800 5800 5799 5798 5797 5796 5795 5794 5793 5792
5816 5816 5814 5815 5814 5814 5812 5811 5810 5809 5808 5803 5809 5808 5809 5808 5807 5809 5809 5809 5809 5809 5809 5809 5807 5807 5805 5805 5805 5804 5803 5804 5802 5802 5800 5800 5798 5797 5795 5794 5793 5792 5791 5790 5789 5787 5787 5786 5785
5812 5811 5812 5811 5809 5811 5812 5812 5809 5805 5801 5800 5800 5805 5802 5803 5802 5802 5802 5801 5802 5801 5801 5801 5799 5800 5799 5799 5799 5797 5798 5796 5795 5794 5793 5792 5790 5790 5789 5788 5787 5786 5784 5783 5782 5780 5779 5778 5778
5808 5808 5807 5806 5806 5805 5805 5805 5804 5803 5796 5796 5796 5797 5799 5797 5797 5797 5797 5798 5797 5796 5796 5794 5792 5792 5791 5791 5790 5791 5790 5789 5787 5786 5786 5785 5784 5782 5781 5781 5780 5778 5777 5775 5774 5773 5771 5770 5769
5805 5803 5803 5802 5801 5799 5798 5800 5799 5798 5793 5789 5791 5793 5792 5791 5790 5789 5789 5793 5793 5791 5790 5788 5785 5784 5785 5784 5784 5784 5783 5782 5780 5779 5778 5776 5775 5774 5773 5772 5771 5769 5768 5766 5765 5763 5762 5760 5758
5800 5800 5799 5798 5796 5794 5793 5796 5793 5791 5789 5785 5785 5786 5786 5786 5784 5782 5781 5783 5785 5784 5783 5780 5778 5778 5777 5777 5776 5776 5776 5774 5773 5770 5769 5768 5767 5766 5764 5763 5762 5760 5758 5756 5754 5752 5750 5748 5746
5794 5793 5793 5794 5791 5790 5789 5790 5788 5785 5785 5782 5780 5779 5778 5779 5779 5777 5775 5774 5774 5775 5774 5773 5771 5769 5768 5768 5767 5766 5767 5766 5763 5762 5760 5759 5758 5757 5755 5752 5751 5750 5747 5745 5744 5741 5739 5737 5734
5788 5786 5786 5786 5783 5781 5780 5779 5780 5780 5778 5776 5773 5771 5769 5767 5768 5770 5769 5769 5768 5768 5767 5765 5763 5761 5760 5759 5758 5758 5757 5755 5752 5750 5749 5748 5747 5746 5742 5740 5739 5738 5736 5734 5732 5730 5728 5724 5722
5780 5779 5780 5777 5777 5774 5773 5770 5770 5771 5773 5772 5770 5767 5762 5759 5757 5759 5761 5762 5760 5759 5758 5756 5753 5751 5750 5749 5748 5747 5746 5745 5743 5741 5739 5738 5736 5735 5732 5730 5729 5726 5724 5721 5719 5718 5717 5713 5710
5773 5772 5771 5773 5773 5767 5765 5765 5765 5763 5759 5760 5762 5759 5754 5749 5747 5747 5748 5752 5749 5749 5747 5744 5742 5740 5739 5738 5737 5737 5736 5734 5731 5729 5728 5726 5724 5723 5721 5718 5718 5715 5712 5710 5708 5706 5706 5702 5698
5766 5763 5762 5762 5762 5758 5758 5757 5757 5755 5753 5753 5750 5749 5745 5740 5738 5735 5737 5742 5739 5736 5734 5732 5730 5729 5728 5727 5727 5726 5724 5722 5721 5719 5716 5714 5712 5712 5710 5707 5706 5704 5700 5698 5696 5694 5694 5692 5687
5757 5754 5753 5752 5752 5750 5748 5747 5746 5744 5745 5741 5739 5736 5734 5729 5727 5727 5727 5730 5730 5727 5726 5724 5720 5719 5718 5716 5714 5713 5712 5711 5708 5706 5704 5703 5702 5699 5698 5696 5693 5691 5689 5686 5684 5682 5682 5680 5677
5748 5745 5743 5745 5742 5739 5736 5734 5738 5736 5731 5727 5725 5725 5722 5718 5718 5716 5714 5715 5717 5714 5714 5712 5709 5706 5706 5704 5702 5700 5700 5699 5698 5694 5692 5690 5688 5686 5684 5681 5680 5677 5676 5674 5673 5671 5670 5667 5665
5737 5735 5736 5732 5730 5731 5725 5728 5729 5723 5719 5714 5710 5711 5710 5709 5706 5706 5705 5705 5706 5702 5699 5698 5697 5692 5691 5690 5687 5688 5688 5687 5684 5682 5680 5677 5675 5672 5670 5668 5666 5665 5663 5661 5660 5658 5656 5655 5652
5726 5726 5724 5723 5722 5721 5724 5716 5716 5711 5709 5706 5704 5699 5701 5701 5701 5698 5697 5695 5694 5690 5688 5684 5683 5681 5679 5679 5675 5675 5674 5673 5670 5670 5668 5665 5663 5661 5659 5657 5655 5654 5652 5651 5648 5646 5645 5644 5642
5716 5713 5712 5712 5712 5712 5712 5705 5703 5702 5700 5696 5696 5694 5687 5690 5689 5689 5687 5684 5680 5678 5677 5672 5671 5671 5669 5666 5665 5663 5662 5661 5658 5658 5656 5654 5651 5650 5649 5647 5646 5644 5642 5640 5637 5636 5635 5635 5634
5705 5705 5702 5696 5694 5695 5700 5694 5699 5693 5690 5687 5681 5683 5679 5675 5675 5675 5675 5671 5668 5667 5667 5662 5661 5661 5658 5654 5653 5652 5651 5650 5647 5647 5646 5644 5641 5639 5638 5637 5636 5635 5632 5630 5629 5628 5628 5626 5626
5699 5696 5694 5684 5685 5681 5686 5685 5685 5675 5673 5668 5666 5664 5667 5663 5658 5660 5659 5659 5658 5654 5652 5650 5648 5648 5646 5644 5642 5640 5638 5638 5636 5636 5634 5632 5631 5630 5629 5628 5626 5625 5623 5622 5621 5620 5618 5618 5617
5685 5685 5680 5677 5668 5664 5666 5670 5669 5662 5659 5658 5655 5654 5651 5652 5650 5643 5644 5642 5642 5642 5639 5636 5636 5636 5635 5633 5631 5629 5628 5626 5625 5625 5623 5622 5621 5621 5620 5619 5618 5616 5615 5615 5614 5612 5611 5610 5610
5672 5666 5664 5660 5658 5650 5648 5653 5659 5643 5645 5645 5644 5641 5640 5636 5637 5633 5627 5627 5629 5627 5625 5624 5624 5626 5624 5622 5620 5619 5618 5616 5615 5614 5613 5612 5611 5611 5611 5610 5609 5609 5608 5607 5606 5605 5604 5604 5603
5654 5653 5651 5643 5641 5640 5635 5634 5644 5636 5630 5633 5631 5628 5625 5625 5620 5622 5619 5615 5613 5612 5612 5611 5610 5613 5614 5612 5610 5609 5608 5607 5605 5605 5604 5604 5603 5603 5602 5602 5602 5601 5601 5600 5599 5598 5598 5597 5597